GFSSGP_700_temp_015.txt.gz
Temp
12 12 12 12 12 12 12 12 12 12 11 11 11 11 11 11 11 11 11 12 11 11 11 10 10 9 9 9 10 10 10 10 10 10 11 11 11 11 11 11 11 11 10 10 10 10 9 9 9
12 12 12 12 12 12 12 12 12 12 11 11 11 11 11 11 11 11 12 12 11 12 12 11 10 10 9 10 10 9 10 10 10 11 11 11 11 11 11 11 11 11 11 11 10 10 10 9 9
12 11 12 11 12 12 12 12 12 12 11 11 11 11 11 11 12 12 12 12 12 12 12 11 10 10 10 10 10 9 10 10 11 11 11 11 11 11 11 11 11 11 11 11 11 10 10 10 10
12 11 11 12 12 12 12 12 12 12 12 12 11 11 11 11 12 12 12 12 12 12 13 12 11 11 10 10 10 10 11 11 11 11 11 11 11 11 11 11 11 10 10 10 10 10 10 10 10
11 11 11 11 12 12 12 12 12 12 12 12 12 11 11 11 12 12 13 13 13 13 13 13 12 11 11 10 10 11 11 11 11 11 11 11 10 10 10 10 10 10 11 10 10 10 10 10 10
12 11 11 11 11 12 12 12 12 12 12 11 12 11 12 11 12 12 12 13 13 13 13 13 12 12 11 11 11 11 11 11 10 10 10 10 10 10 10 10 10 10 10 10 10 10 10 10 10
12 11 11 11 11 11 11 11 11 11 11 11 11 12 12 12 12 12 12 13 13 13 13 13 13 12 12 12 11 11 11 10 10 10 10 10 10 10 10 10 10 10 10 10 10 10 10 10 10
11 11 11 11 11 11 11 11 11 11 11 11 11 12 12 12 11 12 13 13 13 13 13 13 13 13 12 12 11 11 11 11 10 10 10 10 10 10 10 10 10 10 10 10 10 10 10 10 10
11 11 11 11 11 11 11 11 11 11 11 11 11 11 12 12 12 12 13 13 13 13 13 13 13 13 12 12 11 11 11 10 10 10 10 10 10 10 10 10 10 10 10 10 10 10 10 10 10
12 11 12 12 11 11 11 11 11 11 11 11 11 12 11 12 12 12 12 13 13 13 13 13 13 12 12 12 11 11 11 10 10 10 10 10 10 10 10 10 9 9 10 9 9 9 9 9 9
12 12 12 12 12 12 11 12 11 11 11 13 12 11 11 12 12 12 13 13 12 13 13 12 12 12 12 12 11 11 10 10 10 10 10 9 9 9 9 10 9 9 9 9 9 9 9 9 9
12 12 12 12 12 12 12 12 11 11 12 12 11 11 12 13 13 13 12 12 12 12 12 12 12 12 11 11 11 11 11 10 10 10 9 9 9 9 9 9 9 9 9 9 9 9 9 9 9
12 12 12 12 12 12 11 12 12 12 12 11 12 12 12 13 13 13 13 12 12 13 12 12 11 11 11 11 11 10 10 10 10 9 9 9 9 9 9 9 9 9 9 9 8 9 9 9 8
12 12 12 12 12 12 12 12 12 14 13 12 12 12 12 13 13 13 13 13 12 12 12 11 11 11 11 11 10 10 10 10 9 9 9 9 9 9 8 9 9 9 9 8 8 8 8 8 8
12 12 12 13 13 12 12 13 14 13 13 13 13 12 12 13 12 13 13 12 12 12 11 11 10 10 10 10 10 9 9 9 9 9 9 9 8 8 8 8 9 9 8 8 8 8 8 8 7
11 11 12 13 12 12 11 13 14 12 12 12 12 12 12 12 12 12 13 12 12 12 11 10 11 10 10 10 9 9 9 9 9 9 9 8 8 8 8 8 8 8 8 8 8 8 7 7 7
10 10 11 11 12 11 11 11 14 12 12 12 12 12 12 12 12 13 13 12 11 11 11 11 11 10 10 9 9 9 9 9 9 8 8 8 8 8 8 8 8 8 8 8 7 7 7 7 7
9 9 9 9 11 10 9 10 12 12 11 11 12 12 12 12 13 12 12 11 11 11 11 11 10 10 10 9 9 9 9 9 9 8 8 8 8 8 7 7 8 8 8 7 7 7 7 7 6
9 9 9 11 11 9 10 10 11 12 12 12 12 12 12 12 13 12 12 11 11 11 11 10 10 10 9 9 10 10 10 9 8 8 7 7 7 7 7 7 7 8 7 7 7 7 6 6 6
9 8 9 10 10 9 9 12 12 12 13 12 13 13 13 13 13 13 12 11 11 11 10 10 10 9 9 9 9 9 8 8 7 7 7 8 7 6 7 7 7 7 7 6 6 6 6 6 6
8 7 8 7 8 9 9 12 12 12 12 13 13 13 13 13 12 12 12 12 11 10 10 10 10 10 9 9 9 8 8 8 8 8 8 7 6 6 7 7 7 7 7 6 6 6 6 6 6
7 8 7 7 6 6 6 7 9 10 11 11 12 12 12 12 11 11 11 12 11 11 10 9 9 9 9 9 9 8 8 8 7 7 6 6 6 7 7 7 7 7 6 6 6 6 5 5 5
6 6 5 5 6 5 5 4 11 10 9 10 10 10 10 10 10 11 10 10 10 10 10 10 10 9 9 8 8 8 8 7 7 6 6 6 6 6 7 7 7 6 6 6 5 5 5 5 5
5 4 4 4 4 4 6 5 10 9 9 9 9 10 10 9 9 10 10 9 9 9 10 10 10 10 10 10 9 8 8 7 6 6 6 6 6 6 7 7 6 6 6 5 5 5 4 4 4
4 3 3 4 2 4 6 5 7 8 8 7 7 7 8 8 9 9 9 9 9 9 9 10 10 10 11 11 10 9 8 7 6 6 5 5 6 6 6 6 6 6 5 5 5 4 4 4 4
3 3 3 3 4 5 4 5 6 6 6 6 6 5 6 6 7 7 7 8 9 9 10 10 10 11 11 11 10 9 8 7 6 6 6 6 6 6 6 6 6 5 5 4 4 4 3 3 3
2 2 1 1 2 2 3 4 4 5 5 5 5 6 6 7 7 7 7 7 8 9 9 10 10 11 11 11 10 9 8 7 7 6 6 6 6 6 6 6 5 5 4 4 4 3 3 3 3
1 -0 -1 0 1 2 3 3 3 4 4 4 4 5 5 6 6 6 6 6 7 8 9 10 10 10 10 10 10 9 8 7 6 6 6 7 6 6 6 5 4 4 4 3 3 3 2 2 2
-2 -3 -2 -2 -1 -0 0 1 2 2 -0 -0 1 1 1 2 3 3 4 5 5 7 7 8 10 10 10 10 10 10 9 8 6 7 7 7 6 6 5 5 4 4 3 3 3 2 2 2 2
-4 -4 -5 -6 -5 -6 -6 -6 -3 -3 -2 -2 -1 -1 -0 1 1 2 2 3 3 6 6 7 8 9 10 9 9 9 9 8 7 8 7 6 6 6 5 5 4 4 3 3 2 2 2 2 1

GFSSGP_700_temp_021.txt.gz
Temp
12 12 12 12 11 13 14 13 13 12 12 12 11 12 12 11 11 11 12 12 12 12 11 11 12 12 12 12 12 11 11 11 11 11 11 11 11 11 11 11 11 11 10 10 10 10 9 9 9
12 12 12 12 12 13 13 14 13 12 12 12 12 11 11 12 12 12 12 12 12 11 11 11 11 12 12 12 11 11 11 11 11 11 11 11 11 11 11 11 11 11 10 10 10 10 9 9 9
12 12 12 12 14 15 14 13 13 12 12 12 11 11 11 11 12 11 12 12 12 12 12 12 12 12 11 12 12 11 11 11 11 11 11 11 11 11 11 11 11 11 10 11 10 10 10 9 9
12 12 12 12 14 14 13 14 13 12 12 12 11 12 11 12 12 11 12 12 12 12 12 12 12 12 12 12 12 12 11 12 11 11 11 11 11 11 11 11 10 10 11 11 10 10 10 10 10
12 12 12 13 14 14 14 13 12 12 12 11 11 12 11 12 12 12 12 12 13 13 12 12 12 12 12 12 12 12 12 12 11 11 11 11 11 11 11 11 11 10 10 11 10 10 10 10 10
12 12 13 14 15 15 13 13 12 12 12 12 11 11 11 11 12 12 12 13 13 13 13 13 13 12 12 12 12 12 12 12 11 11 11 11 11 11 11 11 11 10 10 10 10 10 10 10 10
12 11 13 13 14 14 14 13 12 12 12 12 11 11 12 11 12 12 12 12 13 13 13 14 13 13 12 12 12 12 12 12 11 11 11 11 11 11 11 11 11 11 11 10 10 10 10 10 10
12 12 12 13 13 13 13 12 11 12 12 12 11 11 12 11 11 11 12 12 12 13 13 13 14 13 13 12 12 12 12 12 12 11 11 11 11 11 11 11 11 11 11 10 10 10 10 10 10
12 12 13 13 13 13 13 12 12 11 11 11 11 12 11 11 11 11 12 12 12 12 13 13 13 13 13 13 13 12 12 12 12 11 11 11 11 11 11 11 11 11 11 11 10 10 10 10 10
12 11 12 12 12 12 11 11 11 11 11 12 11 10 12 11 11 11 11 11 12 12 12 12 13 13 13 13 13 12 12 12 12 11 11 11 11 10 10 10 10 10 11 11 10 10 10 10 9
12 13 12 13 13 13 13 13 11 11 12 11 12 11 11 11 11 11 11 11 11 12 12 12 12 12 13 13 13 12 12 12 11 11 11 11 10 10 10 10 10 10 10 10 10 10 10 10 9
12 12 13 13 13 13 13 13 13 11 11 11 11 12 11 11 12 12 11 11 11 11 12 12 12 13 12 13 12 12 12 12 11 11 11 11 10 10 10 10 10 10 10 10 10 10 10 9 9
12 12 13 13 13 13 13 13 13 13 13 13 12 11 12 11 12 12 11 11 11 12 12 12 11 12 12 12 12 12 12 12 11 11 11 10 10 10 10 10 10 10 10 10 10 9 9 9 9
12 12 13 13 13 13 13 13 12 13 13 14 13 13 13 13 13 12 12 12 12 12 12 12 12 11 12 12 12 12 12 12 11 11 10 10 10 10 9 9 9 9 9 9 10 9 9 9 9
12 12 12 13 11 11 12 13 13 12 12 13 13 13 13 13 13 14 13 13 13 12 11 12 12 12 11 12 12 11 11 11 11 11 10 10 10 9 9 9 9 9 9 9 9 9 9 9 9
11 10 11 12 11 10 11 12 12 11 11 12 13 13 12 12 13 12 13 13 13 13 11 11 12 12 11 11 11 11 11 11 11 10 10 10 10 9 9 9 9 9 9 9 9 9 9 9 9
11 11 12 12 11 10 9 11 12 10 10 12 13 13 13 13 11 12 13 12 12 11 11 11 11 12 11 11 10 10 10 10 10 10 10 10 9 9 9 9 9 8 9 9 8 9 9 8 8
11 11 11 11 11 10 10 9 11 12 11 12 12 12 11 10 10 10 10 9 10 11 11 10 10 11 11 10 10 10 10 10 10 10 10 10 9 9 8 8 8 8 8 8 8 8 8 8 8
8 8 9 10 10 9 9 9 11 13 11 10 9 10 10 9 9 9 9 9 9 9 10 10 10 9 10 10 10 10 10 10 10 9 10 9 9 9 8 8 8 8 8 8 8 8 8 8 8
8 8 9 9 9 8 8 9 12 12 12 11 9 9 9 8 8 8 8 8 8 7 7 8 8 8 7 9 9 9 9 9 8 8 9 9 8 8 8 8 8 8 7 8 7 7 8 8 8
8 8 8 8 7 7 9 10 12 12 12 11 9 8 8 8 8 8 8 8 7 8 9 8 8 6 6 7 8 8 8 8 8 9 9 9 8 8 7 7 8 7 7 7 7 7 7 7 7
7 6 6 6 6 9 9 9 10 11 11 9 8 8 8 7 7 7 8 8 8 8 8 8 8 8 8 6 8 9 8 8 8 8 9 8 7 7 7 7 7 7 7 7 7 7 7 7 7
5 6 6 5 6 6 8 9 12 11 10 7 6 7 6 6 6 6 6 7 7 7 7 8 8 8 8 8 8 8 9 8 8 8 8 8 7 7 7 7 6 6 7 6 6 6 7 6 7
5 5 6 7 7 7 10 10 11 11 9 6 4 5 3 4 4 4 5 6 6 5 6 6 6 6 7 8 8 8 8 8 8 8 8 7 7 7 6 6 6 6 6 6 6 6 6 6 6
4 5 8 10 8 10 10 9 10 10 7 4 2 1 -0 -1 -1 1 3 4 4 5 5 4 5 5 6 6 8 8 8 8 8 7 7 7 7 7 6 6 6 6 6 5 5 6 6 6 6
3 4 6 7 10 10 7 7 9 8 5 2 1 0 -0 -2 -2 2 1 1 2 2 2 3 3 3 3 3 5 7 7 8 8 7 7 8 7 6 5 5 5 5 5 5 5 6 6 6 6
4 4 2 2 4 5 6 8 8 8 5 3 1 -1 -1 -2 -4 -4 -4 -1 -0 0 1 2 2 2 3 3 3 4 5 7 8 8 6 8 8 6 5 5 5 5 5 5 5 5 5 5 5
2 1 1 3 4 6 8 7 6 3 0 -1 -1 -1 -2 -3 -2 -1 -4 -4 -4 -3 -3 -2 -1 1 1 2 2 3 3 5 7 7 6 7 8 6 5 4 4 4 5 4 4 5 5 5 5
1 1 0 0 1 3 3 3 3 -0 -2 -3 -3 -3 -3 -4 -4 -4 -4 -5 -5 -5 -5 -5 -5 -2 -0 1 1 2 3 3 5 6 5 6 6 6 5 4 4 4 4 4 4 5 4 5 5
-2 -1 -2 -2 -1 -1 -2 -2 -2 -2 -3 -3 -3 -3 -3 -4 -5 -5 -5 -5 -5 -5 -5 -6 -6 -5 -2 -0 1 2 2 2 3 3 4 3 5 6 5 4 3 4 4 4 4 4 4 4 4

GFSSGP_700_temp_024.txt.gz
Temp
12 12 12 12 12 12 13 12 13 13 13 12 12 12 12 12 12 12 12 12 12 12 12 12 12 13 13 13 13 12 12 12 12 12 12 12 11 11 11 11 11 11 10 10 10 9 9 9 9
12 12 12 12 12 13 13 13 13 13 12 12 12 12 12 12 12 12 12 12 12 12 12 12 12 12 13 13 13 12 12 12 12 12 12 11 11 11 11 11 11 11 11 11 10 10 9 9 9
12 12 12 12 13 13 12 13 13 13 12 12 12 12 12 11 12 12 12 12 13 13 13 12 12 12 12 13 13 13 13 12 12 12 12 11 11 11 11 11 11 11 11 11 11 10 10 10 9
12 12 12 12 13 14 12 14 13 13 12 12 12 12 12 12 11 12 13 13 13 13 13 13 12 12 12 13 13 13 13 12 12 12 12 11 11 11 11 11 11 11 11 10 10 10 10 10 10
12 12 12 13 14 15 15 14 13 13 13 12 12 12 12 11 11 12 13 13 13 14 14 13 13 12 12 13 13 13 13 12 12 12 12 12 12 11 11 11 11 11 11 10 10 10 10 10 10
12 12 12 13 14 14 14 14 13 13 13 13 12 12 12 12 11 12 13 13 13 14 14 13 14 13 13 13 13 13 13 13 12 12 12 12 12 11 11 11 11 11 11 11 10 10 10 10 10
12 12 12 12 13 14 14 13 13 12 12 13 12 12 12 12 12 11 12 12 13 13 14 15 14 14 13 13 13 13 13 13 13 12 12 12 11 11 11 11 11 11 11 11 11 10 10 10 10
12 12 12 12 13 13 13 13 12 12 12 12 12 12 11 11 11 11 11 12 13 13 14 14 15 13 13 14 13 13 13 13 13 12 12 12 11 11 11 11 11 11 11 11 11 11 10 10 10
12 12 13 12 13 13 13 13 13 12 12 12 12 11 11 11 11 11 11 12 12 12 13 13 15 14 14 14 14 13 13 13 13 13 12 12 12 11 11 11 11 11 11 11 11 10 10 10 10
13 12 13 12 12 13 13 13 13 12 12 12 12 12 12 12 11 11 11 11 11 12 12 12 13 15 13 13 13 13 13 13 13 12 12 12 12 12 11 11 11 11 11 11 11 10 10 10 10
13 13 13 13 13 13 13 13 13 12 13 12 13 12 12 11 11 11 11 11 11 11 12 11 11 13 14 13 14 13 13 13 13 12 12 12 12 12 11 11 11 11 11 11 11 10 10 10 10
12 13 13 13 13 13 13 13 13 13 13 13 13 13 12 11 12 13 12 11 11 11 12 12 11 12 12 13 14 13 13 13 13 12 12 12 12 12 11 11 11 11 11 11 11 10 10 10 10
12 13 13 13 13 13 13 13 13 14 14 14 14 14 13 13 12 12 13 13 12 11 12 12 12 11 12 12 13 13 13 13 12 12 12 12 12 11 11 11 11 11 11 11 11 10 10 10 10
12 12 13 13 13 13 13 13 13 14 13 13 14 13 13 13 13 12 12 12 11 10 10 12 13 12 11 12 13 13 12 12 12 12 12 12 11 11 11 11 11 11 11 11 10 10 10 10 10
12 12 13 13 13 10 11 13 13 12 11 11 12 12 11 11 10 11 12 11 11 11 9 8 11 13 11 12 12 12 12 12 12 12 12 11 11 11 11 11 10 10 10 10 10 10 10 10 10
12 11 12 12 12 11 11 13 12 11 11 11 12 12 12 11 10 10 10 10 10 10 8 8 8 9 12 10 10 11 11 11 11 11 11 11 11 11 10 10 10 10 10 10 10 10 10 9 9
12 11 12 12 12 11 10 11 11 10 10 10 10 10 9 9 10 10 10 10 10 10 9 8 8 7 8 10 9 9 10 10 10 10 10 10 10 10 10 10 9 9 9 9 9 9 9 9 9
10 10 11 10 11 10 10 10 11 12 10 10 9 9 9 9 9 9 10 10 10 9 9 9 8 7 7 7 8 8 9 10 10 10 10 10 10 9 9 9 9 9 9 9 9 9 9 9 9
10 9 9 9 9 9 9 9 12 12 11 10 9 9 10 10 9 9 9 10 10 9 9 8 7 7 6 6 6 8 7 9 9 9 8 8 8 8 8 8 8 8 8 8 8 8 8 8 8
9 8 8 9 9 9 10 10 11 12 11 10 9 9 9 9 9 9 9 9 9 9 8 7 6 6 6 5 5 5 6 7 8 8 8 8 8 8 8 8 8 8 8 8 8 8 8 8 8
7 8 8 7 8 9 8 10 11 11 11 9 9 9 9 8 8 8 8 8 8 8 8 7 7 7 7 5 5 4 5 5 7 9 9 8 8 8 8 7 7 7 7 7 7 7 7 7 8
6 7 7 7 6 7 8 7 10 9 10 8 8 7 7 7 7 7 8 7 7 7 7 7 7 7 6 5 5 4 3 5 6 7 8 8 8 8 7 7 7 7 7 7 7 6 7 7 7
6 6 6 7 6 6 7 8 11 11 7 5 4 4 4 5 6 6 6 6 6 6 7 6 5 5 5 5 4 4 4 2 5 6 7 8 7 8 7 6 6 6 6 6 6 6 6 6 6
5 5 6 9 7 7 9 8 10 9 6 3 2 2 1 0 1 3 3 4 4 4 4 5 5 4 4 4 5 5 4 4 3 5 5 7 7 7 7 7 6 6 6 6 6 6 6 6 6
5 5 6 8 6 6 9 8 9 7 4 2 1 -0 -0 -0 -0 1 3 3 3 3 3 3 3 3 4 3 3 3 4 2 3 5 5 6 7 7 7 7 6 5 5 5 5 6 5 5 5
5 3 5 5 6 5 8 6 7 6 2 1 1 -0 -0 -0 -1 -2 -2 -1 -1 0 1 1 1 1 1 0 1 3 2 3 3 2 3 4 6 7 6 6 5 5 4 4 5 5 5 5 5
4 4 3 2 3 4 5 7 7 6 3 3 2 1 -0 -2 -2 -2 -2 -2 -3 -4 -4 -3 -3 -2 -2 -2 -3 0 2 2 2 2 2 2 2 5 7 6 5 5 4 4 4 4 4 4 4
2 2 2 2 2 3 6 6 5 5 4 3 1 -1 -1 -0 -1 -1 -1 -2 -2 -3 -5 -5 -5 -4 -3 -3 -4 -3 0 1 1 1 1 1 1 -0 5 7 5 4 4 4 3 4 4 4 4
2 1 1 1 1 1 0 2 3 1 -1 -1 -1 -2 -3 -3 -4 -4 -4 -4 -4 -5 -5 -6 -6 -5 -5 -4 -4 -3 -3 -0 0 1 0 -1 -1 -1 0 6 6 4 4 3 3 3 4 4 4
1 -0 -0 0 0 -1 -3 -2 1 -2 -2 -3 -3 -3 -3 -4 -4 -4 -5 -5 -5 -6 -6 -6 -6 -6 -6 -6 -5 -4 -4 -2 -1 -1 -0 -2 -3 -2 -2 2 5 4 3 3 3 3 4 4 4

GFSSGP_700_temp_027.txt.gz
Temp
12 12 12 13 13 12 12 12 12 13 13 12 12 12 11 11 11 12 13 13 13 12 12 12 12 13 13 13 13 13 13 13 13 13 12 12 12 12 11 11 11 11 11 11 10 10 9 9 9
12 12 12 13 12 12 13 13 12 13 13 13 12 12 12 11 12 12 12 13 13 12 12 12 13 13 13 13 13 13 13 13 13 13 12 12 12 11 11 11 11 11 11 11 11 10 10 9 9
12 12 13 13 13 13 14 13 13 13 12 12 12 11 12 12 12 12 12 13 13 13 12 13 13 13 13 13 13 13 13 13 13 12 12 12 12 11 11 11 11 11 11 11 11 10 10 10 9
12 12 13 13 13 13 13 13 13 13 12 12 12 12 12 11 11 12 12 13 14 14 13 13 13 13 13 13 13 13 13 13 13 12 12 12 12 12 11 11 11 11 11 11 11 11 10 10 10
12 13 12 13 13 13 13 13 13 13 12 12 12 12 12 12 11 11 11 12 13 14 14 14 13 13 13 13 13 13 13 13 13 12 12 12 12 12 12 11 11 11 11 11 11 11 10 10 10
12 12 12 12 13 13 13 13 13 13 12 12 12 12 12 12 11 11 11 12 13 14 14 14 14 13 13 13 13 13 13 13 13 12 12 12 12 12 12 12 11 11 11 11 11 11 11 10 10
12 12 12 12 13 13 13 13 13 13 12 12 11 11 11 11 11 11 11 12 13 14 15 14 14 14 14 14 13 13 14 13 13 13 12 12 12 12 12 12 11 11 11 11 11 11 11 10 10
12 12 13 13 13 12 13 13 12 12 12 12 12 11 11 11 11 11 11 12 12 13 14 14 14 14 14 14 14 14 14 13 13 13 13 12 12 12 12 12 12 12 11 11 11 11 11 10 10
12 12 13 13 12 12 13 13 13 12 12 12 13 12 12 11 11 11 11 11 11 12 12 13 14 13 13 14 14 14 14 13 13 13 13 13 12 12 12 12 11 11 12 12 11 11 11 10 10
12 13 13 12 12 13 13 13 13 13 13 13 13 12 11 11 11 11 11 11 12 12 12 13 14 14 13 13 13 13 13 13 13 13 13 13 12 12 12 12 12 11 11 11 11 11 11 11 10
13 13 13 13 13 13 13 13 13 13 14 13 13 13 11 11 11 11 11 11 11 11 12 12 12 13 14 13 12 13 13 13 13 13 13 13 12 12 12 12 12 11 11 11 11 11 11 11 10
13 13 13 13 13 13 13 13 13 13 14 13 13 12 12 11 10 10 10 10 10 10 11 11 12 11 12 13 13 12 12 12 13 12 12 13 12 12 12 12 12 12 11 11 11 11 11 11 10
13 13 13 13 13 13 13 13 13 14 13 13 13 13 12 11 10 10 10 10 9 9 8 8 10 11 11 12 13 13 12 12 12 12 12 12 12 12 12 12 11 11 11 11 11 11 11 11 10
13 13 13 13 13 13 12 13 12 12 12 12 12 12 11 10 10 10 10 10 10 10 10 8 8 9 9 10 11 12 12 12 11 11 11 11 11 11 11 11 11 11 11 11 11 11 10 10 10
12 13 13 12 12 12 11 12 12 11 12 11 10 10 10 10 10 9 9 10 10 10 9 9 8 7 7 8 9 9 10 11 11 11 11 11 11 11 11 11 10 10 10 10 10 10 10 10 10
12 12 11 11 11 10 10 11 11 11 11 11 10 10 10 10 10 10 10 10 10 9 9 8 9 9 8 7 7 8 9 9 10 10 10 10 9 9 10 10 9 9 9 9 9 10 10 10 10
10 10 10 11 11 10 10 11 11 11 10 10 9 9 9 9 9 10 10 9 10 10 9 8 8 8 8 7 7 7 7 8 9 9 9 9 9 8 9 9 9 8 8 9 9 9 9 9 9
9 10 10 10 10 9 10 11 11 11 10 9 9 9 9 9 9 9 9 9 9 9 10 9 8 8 8 7 7 7 6 6 7 8 8 8 9 8 8 8 8 8 8 8 8 8 8 8 8
9 9 9 9 9 8 9 10 10 11 11 10 9 9 9 9 9 9 9 9 9 9 9 9 8 8 8 7 5 5 5 5 5 6 7 8 8 7 7 7 7 7 7 7 7 7 8 7 7
9 9 9 9 8 8 9 10 9 11 11 10 9 9 9 9 9 9 9 9 9 9 9 9 8 8 7 7 6 5 5 5 5 4 6 7 7 7 7 6 6 6 6 6 6 6 7 7 7
8 7 7 7 8 8 7 9 7 8 8 7 7 8 9 9 8 8 8 8 8 8 8 8 8 7 7 7 6 6 5 4 4 5 4 4 6 6 6 6 6 6 6 6 6 6 6 6 6
7 7 7 7 6 6 7 5 7 6 6 5 6 7 7 8 8 8 8 7 7 7 7 7 7 6 6 6 6 6 5 4 3 3 3 3 4 6 6 6 6 5 6 5 5 5 5 6 6
7 6 6 7 6 4 6 6 5 4 3 3 3 4 5 6 6 6 6 5 6 6 5 5 6 5 5 5 4 4 5 4 2 2 2 3 3 5 6 6 6 5 5 5 5 5 5 5 5
6 6 7 8 7 4 6 6 4 4 2 1 1 1 2 2 3 3 4 3 4 4 4 4 4 5 5 6 5 4 3 3 4 3 3 3 3 4 5 5 6 5 5 4 4 4 4 4 4
5 5 5 5 4 3 7 7 4 1 1 1 1 1 1 1 1 2 2 3 3 3 3 3 3 3 4 4 4 4 5 5 3 3 3 2 3 3 4 4 5 5 4 4 4 4 3 4 4
4 4 4 2 1 3 8 6 3 1 1 1 1 0 -0 -1 -1 -1 -2 -1 -1 -1 -2 -1 -1 0 -0 -1 -1 -0 1 1 1 1 2 2 2 2 2 3 4 5 3 3 4 3 3 3 3
4 4 3 2 2 2 4 4 1 1 2 2 1 0 -1 -1 -2 -2 -3 -3 -2 -2 -3 -4 -4 -3 -2 -2 -2 -2 -2 -2 -3 -2 1 1 1 1 2 1 1 2 3 2 3 4 3 3 3
2 2 2 2 -0 -1 2 4 5 2 2 2 1 -0 -2 -3 -3 -3 -3 -2 -2 -3 -2 -2 -4 -5 -5 -4 -3 -3 -3 -3 -3 -3 -2 -1 0 0 1 1 0 -0 1 2 2 3 3 3 3
2 1 1 1 1 -2 -4 1 4 3 3 2 2 1 -1 -3 -3 -3 -3 -4 -4 -4 -6 -6 -6 -6 -5 -5 -4 -4 -4 -3 -4 -3 -3 -3 -2 -3 -2 -1 -2 -2 -1 -1 1 2 3 3 2
0 1 0 -1 -0 -0 -2 -1 1 1 0 -1 -3 -3 -4 -4 -4 -4 -4 -4 -4 -5 -6 -6 -5 -5 -6 -5 -5 -5 -5 -4 -4 -4 -3 -3 -4 -4 -3 -2 -2 -2 -2 -2 1 1 2 2 2

GFSSGP_700_temp_030.txt.gz
Temp
12 12 12 13 13 13 13 13 13 13 13 12 12 12 11 11 11 12 12 12 13 13 13 12 13 13 13 13 13 13 13 13 13 12 12 12 12 11 11 11 11 11 11 11 10 10 10 10 9
12 12 13 13 13 13 13 13 12 12 12 12 12 11 11 11 11 12 12 12 12 13 13 12 12 13 13 13 13 13 13 13 13 12 12 12 11 11 11 11 11 11 11 11 11 10 10 10 10
12 12 13 13 12 12 13 13 13 12 12 12 12 12 12 12 12 11 12 12 13 13 13 12 12 13 13 13 13 13 13 13 13 12 12 12 12 11 11 11 11 11 11 11 11 11 11 10 10
12 12 13 12 13 13 13 13 12 12 12 12 12 12 12 12 12 11 12 12 13 13 13 13 13 13 13 13 13 13 13 13 13 12 12 12 12 12 11 11 11 11 11 11 11 11 11 11 11
12 12 13 13 13 13 13 13 12 12 12 12 12 12 12 12 11 12 12 13 13 13 13 13 13 13 13 13 13 13 13 13 13 13 12 12 12 12 11 11 11 11 11 11 11 11 11 11 11
12 13 13 13 13 13 12 12 13 13 12 12 12 11 11 11 11 11 11 12 12 13 13 13 13 13 13 13 13 13 13 13 13 12 12 12 12 12 12 11 11 11 11 11 11 11 11 11 11
12 12 12 12 13 13 12 12 13 13 13 12 12 11 11 11 11 11 11 11 12 12 13 13 13 13 13 13 13 13 13 13 12 12 12 12 12 12 12 12 12 11 11 11 11 11 10 10 10
12 12 13 12 13 13 13 13 12 12 12 13 12 12 11 11 11 11 11 11 12 12 13 13 13 13 13 13 13 13 13 13 13 12 12 12 12 12 12 12 12 12 11 11 11 11 11 10 10
12 12 13 13 13 13 13 13 13 13 13 13 13 12 11 11 11 10 10 10 11 11 11 11 12 12 12 13 13 13 13 13 12 12 12 12 12 12 12 12 11 11 11 11 11 11 11 11 10
13 13 13 13 13 13 13 13 13 13 13 13 12 12 11 11 11 11 10 10 10 10 10 11 11 12 12 12 12 12 12 12 12 12 12 12 12 11 11 11 11 11 11 11 11 11 11 11 11
13 13 13 13 13 13 13 13 13 13 13 12 13 12 12 11 11 10 10 9 9 10 11 12 12 12 11 11 11 11 12 12 12 12 12 12 11 11 11 11 11 11 11 11 11 11 11 11 10
13 13 13 13 13 13 13 13 13 13 12 13 12 12 12 11 10 10 10 10 10 10 11 11 11 12 11 11 11 11 11 11 11 11 11 12 11 10 10 10 10 10 10 10 10 10 10 10 10
12 13 13 13 13 13 13 12 11 11 12 12 11 11 9 10 10 9 9 9 9 9 9 9 9 10 10 10 9 10 10 10 10 10 11 11 11 10 10 10 10 10 10 10 10 9 10 10 10
12 12 12 12 12 12 11 11 12 11 11 11 10 10 10 10 10 9 9 9 9 9 9 8 8 9 9 9 10 10 9 9 9 9 9 9 10 10 10 9 9 9 9 9 9 9 9 9 9
12 12 12 11 11 11 11 12 11 11 10 10 9 9 9 9 9 9 10 10 9 9 9 9 8 7 7 8 8 7 7 8 8 9 8 8 8 9 9 9 9 8 8 8 8 8 8 8 8
11 11 11 11 10 10 10 11 10 9 9 9 9 9 10 10 9 10 9 9 9 9 9 9 8 8 8 7 7 7 7 7 7 7 7 8 8 8 8 8 8 8 8 8 7 7 8 8 8
10 10 10 10 10 10 10 10 9 10 9 9 9 9 9 9 9 9 9 9 9 9 9 9 9 8 8 7 7 7 6 6 5 5 6 6 7 7 7 7 7 7 7 7 7 7 7 7 7
9 9 9 9 9 10 11 9 9 10 10 10 10 9 9 8 8 8 8 8 8 9 9 9 9 9 8 8 8 7 6 5 4 4 5 4 5 6 6 6 6 6 6 6 6 6 6 6 6
8 8 8 9 9 9 9 8 8 9 9 9 9 8 8 8 8 8 8 8 8 8 8 9 9 9 8 8 8 8 7 5 5 4 5 4 5 4 5 5 5 5 6 6 5 5 6 6 5
8 8 8 9 8 8 8 7 6 6 7 7 7 7 7 7 7 7 7 7 7 7 7 7 8 7 7 7 7 7 7 7 6 4 4 4 3 4 4 4 4 4 4 5 5 5 5 5 5
8 8 8 7 9 8 7 5 4 4 5 6 6 6 6 6 5 5 5 5 6 6 6 6 6 6 6 6 5 6 6 6 5 5 5 3 4 4 4 4 3 2 3 4 4 4 5 5 4
8 7 7 7 6 6 6 4 3 2 4 4 4 4 4 5 5 4 4 4 5 5 6 6 6 5 5 5 5 5 4 4 4 4 4 4 4 3 3 2 3 3 2 3 3 4 4 4 4
6 7 7 7 5 4 6 4 2 2 3 3 3 3 3 3 3 4 4 4 4 5 5 5 5 5 5 5 5 5 4 4 5 4 4 3 3 3 2 2 2 3 3 3 2 2 3 4 4
6 6 7 7 6 3 6 5 1 2 2 2 1 1 1 1 2 2 3 3 3 4 4 4 4 5 5 5 5 6 6 5 5 5 5 4 3 3 2 2 3 3 4 3 3 2 2 3 3
5 6 6 5 3 3 6 5 5 3 2 1 1 1 1 1 1 2 2 3 3 3 2 3 2 2 2 2 2 2 3 3 4 3 4 5 4 3 2 3 2 3 4 3 1 2 2 2 3
4 4 4 3 1 2 6 5 3 2 1 0 -0 -0 -0 0 -0 -0 -1 -1 -1 -2 -2 -2 -2 -2 -2 -1 -1 -1 -1 -1 -1 -1 -1 -1 -1 1 2 2 2 2 3 4 1 1 1 1 2
4 3 3 2 2 0 3 2 1 1 0 0 0 0 0 0 -1 -2 -3 -3 -3 -4 -4 -4 -4 -4 -3 -3 -2 -2 -2 -2 -2 -2 -2 -2 -2 -2 -1 -0 0 1 2 2 1 0 1 1 1
3 2 2 2 -0 -1 1 2 4 1 -0 -0 0 0 -0 -1 -1 -3 -3 -3 -3 -4 -4 -5 -4 -4 -4 -4 -3 -3 -3 -3 -3 -2 -2 -3 -3 -3 -3 -2 -2 -1 -0 1 1 -0 0 -0 1
2 1 1 1 1 -2 -4 1 4 2 1 1 0 -1 -0 -1 -3 -3 -4 -4 -4 -5 -5 -5 -5 -5 -4 -4 -4 -4 -4 -4 -4 -4 -4 -3 -4 -4 -3 -3 -4 -3 -2 -2 -2 -1 -0 -0 0
2 1 1 -0 -0 -1 -3 -1 1 1 1 -0 -2 -2 -3 -4 -4 -5 -5 -5 -5 -6 -6 -6 -6 -5 -5 -6 -6 -5 -5 -5 -5 -4 -4 -4 -5 -5 -4 -4 -4 -4 -4 -3 -2 -2 -0 -1 -1

GFSSGP_700_temp_036.txt.gz
Temp
12 12 12 12 12 12 12 12 12 12 12 11 11 11 11 11 11 11 11 11 12 12 12 12 13 13 13 13 12 12 11 11 11 11 11 11 11 11 11 11 11 11 11 11 10 10 9 9 9
12 12 12 12 12 12 12 12 12 12 11 11 11 11 11 11 11 11 11 11 11 12 12 12 12 13 12 12 12 12 12 12 11 11 11 11 11 11 11 11 11 11 11 11 11 10 10 10 9
12 12 12 12 12 12 12 12 12 12 12 12 11 11 11 11 11 11 10 10 11 11 12 12 12 12 12 12 12 12 12 12 11 11 11 11 11 11 11 11 11 10 10 10 10 10 10 10 10
12 12 12 12 12 12 12 12 12 12 12 12 12 11 11 11 11 10 10 10 11 11 11 12 12 12 12 12 12 12 12 11 11 11 11 11 11 11 11 11 11 10 10 10 10 10 10 10 10
12 12 13 12 12 12 12 12 12 11 12 12 12 11 11 10 10 10 10 10 10 10 11 11 11 11 11 11 12 12 11 11 11 11 11 11 11 11 11 11 11 11 10 10 10 10 10 10 10
12 12 12 13 13 13 12 12 12 12 12 11 11 11 11 11 10 10 10 10 10 9 10 10 11 11 11 11 11 11 11 11 11 11 11 11 11 11 11 11 11 10 10 10 10 10 10 10 9
12 12 12 13 13 13 12 12 12 12 12 12 11 11 11 11 11 10 10 10 10 9 9 9 10 10 11 11 11 11 11 11 11 10 11 11 10 10 10 10 10 10 10 10 10 10 10 9 9
12 12 12 13 13 13 12 12 12 12 12 11 11 11 11 12 11 11 10 10 10 9 9 9 9 10 10 10 10 10 10 10 10 10 10 10 10 10 10 10 10 10 10 10 10 10 10 9 9
12 12 12 12 13 12 12 12 12 12 11 11 11 12 12 12 12 11 10 9 9 9 9 9 9 9 9 9 9 9 9 9 9 9 10 9 9 9 9 9 9 9 9 9 9 10 10 9 9
12 12 12 12 12 12 12 12 12 11 10 12 11 11 11 12 11 11 11 10 10 9 9 9 9 8 7 8 8 7 7 7 8 8 9 9 9 8 8 9 9 9 9 9 9 9 9 9 9
12 12 12 12 12 12 12 12 11 10 11 11 11 11 11 11 11 11 11 11 10 10 9 9 9 8 8 7 7 6 6 6 6 7 8 8 8 7 8 8 8 8 8 8 8 8 9 9 9
11 12 12 12 11 12 12 11 10 10 10 10 10 10 10 11 10 10 10 10 10 10 9 9 9 9 8 7 6 6 6 6 6 6 6 6 6 7 7 7 7 7 7 7 8 8 8 8 8
12 12 12 11 12 12 11 10 10 10 9 9 9 10 10 10 10 9 9 9 9 9 9 9 9 9 8 8 7 6 6 6 6 6 6 6 5 5 5 6 6 7 6 6 7 7 7 7 8
12 12 11 11 11 10 10 10 9 9 10 9 9 9 9 9 9 9 9 9 9 9 9 9 9 9 9 8 8 8 7 6 6 6 5 5 5 4 4 4 5 5 6 6 6 6 6 7 7
11 11 11 11 10 10 10 9 9 9 9 8 9 9 9 9 9 9 9 9 9 9 9 9 9 9 8 8 8 8 8 7 6 6 6 5 5 4 4 4 3 4 4 5 5 5 5 5 6
11 11 10 10 9 10 9 9 9 8 8 8 8 8 9 8 8 8 8 8 8 8 8 8 8 8 8 8 8 8 8 8 7 7 6 6 5 5 4 4 3 3 3 3 4 5 5 5 5
10 10 9 9 9 9 9 8 8 8 8 8 9 9 8 8 7 7 7 7 7 7 7 7 7 7 7 8 8 8 8 8 7 7 7 6 6 6 5 4 4 3 3 3 3 3 4 4 4
9 8 8 8 8 8 8 8 8 8 8 8 8 7 7 6 6 6 6 6 6 6 6 6 6 6 6 6 6 7 7 8 7 7 7 7 6 6 6 5 4 4 3 3 4 3 3 3 3
8 8 8 8 7 6 7 8 8 8 7 6 6 6 6 6 5 5 5 5 5 5 5 4 4 4 4 4 3 3 3 4 5 5 6 6 6 6 5 5 5 4 4 3 3 3 3 3 3
8 8 7 7 6 6 6 7 6 6 6 5 4 4 5 5 4 4 4 4 4 4 4 4 4 4 4 4 3 3 3 3 3 3 4 4 5 5 4 3 4 3 3 4 4 3 2 2 2
7 7 6 6 5 5 5 5 6 5 5 5 4 4 3 3 3 3 3 3 3 3 3 3 3 4 4 4 4 4 4 4 4 3 3 3 3 4 3 3 4 3 4 2 3 3 3 2 2
7 6 6 6 5 5 4 5 6 6 5 4 4 5 5 4 4 3 3 3 3 3 3 3 3 3 3 3 4 4 4 5 5 5 5 4 4 3 3 3 4 3 3 3 2 3 3 3 2
6 6 6 6 5 4 4 2 7 6 5 4 4 4 4 4 3 3 2 2 2 2 2 2 2 3 3 3 3 3 3 3 3 3 3 4 3 3 3 3 3 3 3 3 2 2 2 2 2
6 7 7 6 5 3 4 3 6 6 6 4 4 3 2 2 1 1 1 1 1 1 1 2 2 2 2 1 1 1 0 0 0 0 0 -0 -0 0 1 1 1 1 2 2 2 1 1 1 1
6 6 6 4 3 3 4 3 6 5 5 4 3 3 2 1 1 0 0 0 0 0 0 0 0 0 -0 -1 -1 -2 -2 -2 -2 -3 -3 -3 -2 -2 -2 -2 -2 -1 -1 -0 0 1 1 1 1
6 5 5 4 1 1 4 4 5 5 4 4 3 3 3 1 0 -0 -0 -0 -1 -1 -2 -2 -2 -2 -3 -3 -3 -4 -4 -4 -4 -3 -3 -4 -4 -3 -3 -3 -2 -2 -2 -2 -2 -2 -1 -0 0
5 5 4 3 1 -1 3 4 4 5 5 4 3 3 2 1 0 -0 -1 -1 -2 -2 -2 -2 -3 -3 -4 -4 -4 -4 -5 -5 -5 -4 -4 -4 -4 -4 -4 -4 -4 -3 -3 -3 -3 -3 -3 -2 -1
5 4 3 2 0 -0 1 3 6 5 4 3 2 1 1 0 -1 -1 -1 -2 -2 -3 -3 -3 -4 -4 -5 -5 -6 -6 -6 -6 -6 -6 -5 -5 -4 -5 -5 -5 -4 -4 -3 -3 -4 -4 -3 -3 -2
4 3 2 2 1 -2 -4 2 5 4 3 2 1 -0 -1 -1 -1 -2 -2 -3 -4 -4 -4 -4 -4 -5 -5 -6 -7 -7 -7 -7 -7 -7 -6 -6 -5 -5 -5 -5 -5 -5 -5 -5 -5 -4 -4 -4 -3
4 3 2 1 1 -0 -3 1 4 3 2 0 -1 -1 -1 -1 -2 -3 -3 -4 -4 -4 -4 -4 -4 -5 -6 -6 -6 -7 -7 -8 -8 -7 -7 -7 -7 -6 -6 -6 -6 -5 -5 -5 -5 -5 -5 -5 -4